Weather in Belogorskiy

Russia / Arkhangel'skaya Oblast'     64°11′14″N   42°20′09″E
temp.,
°C
wind,
m/s
gust,
m/s
humid.,
%
clouds,
%
prec.,
mm/h
press.,
hPa
HPBL,
m
14 august, sun
sun1400:00+7nw11831 0.0 102210
03:00+6wsw11840 0.0 102310
06:00+9sw12675 0.0 102369
09:00+15ssw2450100 0.0 1022456
12:00+16ssw375375 0.0 1022706
15:00+20wsw464842 0.0 10211076
18:00+19wsw265891 0.0 1020976
21:00+15ssw2670100 0.0 1019132
15 august, mon
mon1500:00+15wsw2373100 0.0 101977
03:00+14n1176100 0.0 102018
06:00+14ne237698 0.0 102179
09:00+19e115722 0.0 1022517
12:00+22nnw12445 0.0 10231429
15:00+23nw234277 0.0 10232026
18:00+21ene235321 0.0 1023152
21:00+15e267126 0.0 1024101
16 august, tue
tue1600:00+13ese277275 0.0 1024137
03:00+12se2674100 0.0 1024135
06:00+14sse2576100 0.0 1024155
09:00+20ssw2463100 0.0 1023371
12:00+24sw354999 0.0 10221015
15:00+27wsw36435 0.0 10211764
18:00+25sw36545 0.0 1020414
21:00+17ssw22875 0.7 102118
17 august, wed
wed1700:00+16sw22899 0.0 102136
03:00+15ssw23935 0.0 102140
06:00+17sw128899 0.0 102149
09:00+21sw137122 0.0 1021221
12:00+27wsw23475 0.0 10201015
15:00+28w234153 0.0 10202331
18:00+23sw116088 0.0 102017
21:00+22s116196 0.0 102011
18 august, thu
thu1800:00+20s116829 0.0 102012
03:00+17s11795 0.0 102011
06:00+19sse247579 0.0 1020114
09:00+24ssw355527 0.0 1020457
12:00+28ssw34445 0.0 10201393
15:00+28ssw344448 0.0 10201629
18:00+25wsw126129 0.0 102062
21:00+19wsw388269 0.2 1020176